GFSNW_250_spd_264.txt.gz
Wind_Speed
53 53 51 52 52 57 57 58 58 53 51 49 57 54 53 55 56 56 58 58 59 59 61 64 66 68 71 72 75 80 84 82 78 55 40 35 29 24 24 30 33 39 46 56
50 61 60 56 55 57 59 58 56 55 57 53 52 60 58 57 58 58 60 60 60 61 62 63 66 67 69 70 74 77 82 84 75 63 44 36 30 24 23 27 32 37 40 54
62 64 65 57 58 59 60 62 58 55 57 53 53 54 60 56 57 58 60 61 60 61 63 63 65 66 68 70 73 76 79 82 77 60 53 37 31 24 22 25 29 33 43 50
60 64 63 56 60 62 61 57 61 60 60 59 53 53 57 57 56 57 60 61 61 61 63 64 66 66 68 70 72 74 76 79 79 60 51 45 32 27 22 26 29 32 39 45
64 61 59 62 60 63 62 61 63 60 62 61 60 61 59 58 60 60 60 62 62 62 64 62 65 65 65 67 70 72 73 76 77 69 50 43 38 27 23 26 28 30 37 42
65 62 65 65 67 61 66 66 64 62 67 60 63 64 65 60 65 64 61 63 64 65 64 64 64 65 65 67 68 71 72 74 75 71 55 44 37 31 26 26 28 30 34 35
64 67 66 65 68 64 66 65 63 68 67 65 66 65 66 65 62 66 65 61 62 63 65 67 65 65 66 67 67 70 70 72 74 71 57 45 40 32 28 24 28 29 33 35
67 68 69 68 73 72 68 66 66 65 67 65 60 65 69 65 67 68 66 65 66 64 62 66 66 65 66 67 67 69 68 67 72 72 62 45 39 32 28 26 29 33 33 34
73 72 71 71 71 73 74 74 74 77 75 74 70 69 72 73 72 76 69 70 70 68 63 63 67 65 63 64 67 67 69 69 71 72 68 53 40 37 31 27 28 31 33 33
73 76 74 75 75 74 73 74 77 76 77 79 76 74 71 73 75 72 73 71 71 69 65 62 64 66 64 64 64 68 71 72 71 73 69 58 45 38 34 31 25 24 32 35
76 78 78 78 79 76 76 74 74 73 77 78 76 74 75 77 77 74 78 77 70 66 65 63 63 64 65 66 66 67 70 70 71 74 72 67 43 37 36 33 29 26 32 37
81 83 79 80 78 78 76 78 79 79 81 77 77 79 75 75 77 78 77 76 70 68 65 64 63 64 64 66 66 67 69 69 73 73 76 69 59 40 35 34 33 28 32 35
81 80 80 81 83 82 83 81 83 83 78 79 80 78 79 81 81 77 75 75 68 64 64 65 65 63 64 67 65 65 69 67 69 72 78 72 64 48 34 31 34 33 32 33
82 83 83 82 85 86 83 81 84 81 77 80 80 79 78 77 77 74 69 69 67 65 64 65 66 63 64 68 67 65 67 69 68 68 72 72 68 51 40 31 31 36 35 34
83 82 83 84 86 84 83 82 85 85 85 83 80 83 81 77 73 71 68 65 65 63 64 65 66 64 62 69 69 65 67 68 68 69 70 71 69 53 42 36 31 32 38 35
80 83 83 82 83 85 86 83 84 85 82 78 79 78 76 73 73 71 69 66 66 63 63 67 67 66 62 65 69 67 67 68 68 68 69 71 70 54 43 38 33 30 33 38
70 73 79 78 81 84 84 83 82 79 75 70 64 60 63 65 69 70 69 65 64 63 63 67 66 67 64 67 65 69 66 68 68 66 67 70 69 58 44 39 37 34 33 34
64 64 64 67 70 72 73 74 75 76 75 72 62 58 62 67 64 64 65 64 62 62 63 67 64 67 66 66 65 67 65 67 67 64 66 69 70 59 48 39 35 35 33 34
55 55 54 57 60 61 64 65 65 65 63 63 59 59 62 62 62 62 64 63 62 61 62 65 61 67 67 64 63 66 64 64 63 62 65 71 73 61 50 44 37 35 34 33
56 54 54 54 55 55 56 54 54 51 51 53 59 64 65 62 61 61 63 63 63 60 60 61 59 66 66 59 62 63 64 64 62 62 66 71 73 63 50 44 38 35 34 33
60 58 57 54 53 52 51 49 47 45 46 51 58 62 62 60 59 62 64 62 60 58 60 58 55 65 65 57 60 61 61 62 63 65 68 71 75 64 53 46 40 36 34 33
68 65 63 60 56 55 53 47 50 52 51 50 54 57 61 62 61 63 62 62 58 57 59 56 55 62 60 58 60 57 61 62 66 70 71 73 72 61 52 46 43 38 35 35
70 69 67 65 64 61 57 57 57 58 55 55 55 56 57 58 59 58 59 57 57 57 55 55 57 56 60 62 63 59 64 68 72 75 75 76 68 57 52 45 42 39 37 35
77 76 74 72 69 67 69 68 66 66 63 63 61 61 60 60 60 61 61 61 61 62 62 60 58 58 62 65 67 64 67 74 77 79 78 73 61 53 48 46 42 41 38 37
85 82 79 75 79 79 77 76 75 75 73 71 69 69 69 68 66 67 69 70 71 71 69 67 66 66 69 72 74 73 72 78 83 81 76 66 56 52 47 43 42 41 39 37
89 86 86 87 87 88 88 86 83 82 81 81 81 79 77 75 76 76 77 76 77 76 74 74 73 73 75 77 80 80 78 80 83 78 69 60 55 52 48 42 40 40 40 38
96 99 102 101 99 99 97 95 94 93 91 89 88 87 87 85 84 85 88 89 87 86 86 87 88 86 84 84 86 85 83 81 77 70 63 56 52 50 48 43 41 40 39 37

GFSNW_250_spd_267.txt.gz
Wind_Speed
53 51 56 55 52 47 50 52 52 51 55 56 57 58 59 57 59 61 58 60 60 54 53 55 58 60 61 60 61 63 63 63 70 76 80 84 76 52 40 34 32 35 37 44
58 56 59 58 52 50 53 54 55 53 56 54 57 59 61 58 59 62 59 64 64 63 58 58 57 58 61 62 63 63 63 62 63 71 79 83 77 55 45 36 34 33 35 45
62 62 63 61 58 55 55 53 53 54 55 57 60 63 63 63 59 62 61 64 64 64 62 65 61 61 61 62 64 61 59 63 63 68 70 77 79 63 43 38 35 34 35 43
65 65 64 63 58 61 56 58 54 56 59 63 65 63 68 62 62 66 61 64 62 65 63 68 65 65 63 62 63 63 61 62 62 66 69 74 80 71 47 38 36 33 36 39
66 64 65 65 62 64 60 58 60 55 57 63 66 64 62 65 63 64 61 60 64 68 66 68 71 69 67 62 61 61 62 62 63 64 66 70 74 70 57 42 36 34 36 29
67 70 66 64 66 61 59 61 59 60 60 62 64 72 65 62 65 70 69 73 70 72 68 73 74 72 73 63 59 59 60 60 61 63 64 67 72 76 61 43 36 35 36 34
71 68 69 65 64 63 63 63 62 62 65 65 70 68 73 74 75 74 73 74 74 71 69 75 71 71 71 67 60 59 60 59 58 61 65 64 68 73 66 47 39 34 33 32
72 69 65 67 64 67 63 65 69 67 67 70 69 69 73 72 74 75 74 72 75 77 73 74 70 74 72 69 62 58 59 60 60 58 63 63 67 71 68 58 41 34 31 30
70 68 68 69 66 66 71 70 69 72 71 73 71 69 71 73 77 77 75 75 77 72 74 72 76 75 71 63 63 57 57 58 58 57 57 61 65 69 68 60 46 38 34 32
74 70 71 71 71 72 75 74 72 73 74 74 75 72 75 75 76 77 79 78 76 74 75 73 71 75 66 61 61 59 58 59 58 58 55 61 60 64 66 61 51 41 34 33
76 74 74 74 74 76 76 76 75 77 77 78 76 77 77 78 77 79 83 81 76 74 74 71 71 72 65 61 63 59 57 56 60 60 56 62 61 65 65 64 53 42 39 32
75 73 72 76 76 76 78 75 72 77 79 85 82 80 80 80 81 79 80 79 78 78 78 74 75 73 62 61 63 62 58 56 59 59 56 61 62 62 62 63 59 45 39 35
71 75 75 77 75 78 77 76 77 78 81 81 81 82 80 79 79 78 79 82 81 79 76 76 69 65 60 59 63 63 58 58 56 58 59 60 60 62 60 63 59 49 40 37
73 72 73 75 78 79 80 80 79 79 78 79 79 79 80 82 83 83 85 85 81 76 75 69 67 63 58 61 62 64 53 59 56 57 55 59 59 59 59 63 60 52 40 35
73 75 75 78 78 78 80 81 82 81 81 80 81 82 82 84 87 86 82 78 75 67 65 58 57 60 53 56 63 63 53 57 54 56 54 55 57 56 56 60 60 54 44 37
75 76 79 81 80 80 77 78 79 82 79 80 86 83 82 79 75 76 75 70 69 66 56 53 53 55 52 53 63 56 56 57 53 53 53 52 53 53 55 59 60 58 47 39
75 77 76 79 81 82 80 77 68 62 62 61 60 62 66 70 71 71 69 64 63 58 54 52 51 53 52 54 63 53 55 54 51 50 49 50 50 52 54 59 61 57 49 42
79 80 77 67 64 59 56 54 55 55 55 52 51 55 62 65 67 67 64 59 55 54 51 52 50 53 56 55 57 59 52 50 47 48 47 47 49 52 55 58 64 59 51 44
56 57 56 56 55 53 52 51 50 48 47 46 50 54 54 57 57 55 54 51 48 49 52 51 46 54 60 54 53 54 50 48 47 47 47 47 49 54 57 60 63 61 52 46
52 52 54 54 54 54 54 51 51 50 50 51 55 52 52 50 49 48 49 48 47 41 47 47 48 55 58 49 48 48 47 47 46 46 49 51 54 56 60 62 66 66 54 47
54 54 54 55 56 57 56 56 56 55 57 58 59 58 55 52 51 48 45 44 42 40 48 48 43 57 54 50 48 50 48 49 50 50 54 56 62 61 63 65 68 67 57 48
65 67 64 62 62 60 59 58 60 63 63 62 62 63 62 60 58 54 52 49 46 47 44 43 47 53 51 50 49 53 54 54 55 57 59 63 66 68 67 69 68 66 57 49
72 69 72 70 69 68 65 67 66 67 66 66 67 67 67 65 65 63 62 60 59 58 57 57 57 55 57 57 57 60 61 57 60 62 66 71 72 73 73 71 67 62 54 49
81 78 77 78 77 77 76 74 72 72 71 72 73 73 71 70 69 69 69 70 69 69 69 69 67 66 67 66 67 68 70 69 68 70 73 78 79 78 76 70 64 59 52 48
89 87 86 84 88 88 86 83 82 78 78 79 78 77 77 78 77 75 77 79 78 78 77 77 78 77 77 76 76 77 78 78 78 78 78 80 80 79 73 65 60 55 49 46
98 96 97 97 95 95 94 93 90 88 87 87 88 87 86 86 87 86 86 87 87 85 84 85 86 86 87 83 85 85 85 84 83 81 78 76 74 71 65 61 55 49 47 44
106 107 107 105 101 99 98 97 101 100 96 96 96 93 93 94 94 96 98 98 96 92 91 91 95 97 101 96 89 89 88 84 79 75 68 67 62 60 60 55 50 46 46 43

GFSNW_250_spd_270.txt.gz
Wind_Speed
56 55 51 49 47 48 49 47 51 50 52 50 52 53 51 54 53 55 60 60 58 56 57 62 65 62 64 68 68 66 65 63 57 55 56 58 59 63 67 73 72 53 45 41
57 54 53 50 53 50 52 50 54 53 52 53 54 56 54 54 50 53 57 60 59 60 63 66 61 69 70 70 70 67 66 68 56 55 56 55 55 57 60 68 74 63 45 44
58 56 54 55 55 54 54 54 54 58 53 58 60 59 56 55 52 55 56 58 64 65 66 63 70 72 73 73 73 73 67 73 63 54 51 53 57 60 60 62 69 67 48 46
60 59 58 59 59 56 55 57 57 60 61 62 62 61 58 55 56 60 62 60 65 66 66 71 72 73 73 75 75 75 72 71 66 57 52 52 51 56 57 61 66 67 55 38
64 63 61 60 60 63 61 61 59 58 64 62 63 60 61 58 64 62 61 64 64 67 68 67 73 73 73 77 76 76 71 71 68 59 52 50 52 53 54 59 65 66 60 44
68 66 67 66 66 65 65 62 64 65 65 61 62 63 64 65 64 68 67 68 66 69 68 71 72 72 78 80 75 78 71 68 69 62 56 51 51 52 54 55 61 64 61 49
72 70 67 68 70 69 66 70 66 67 65 66 65 67 66 67 67 66 71 71 70 72 72 71 75 73 76 77 77 76 74 69 69 64 60 53 50 49 51 56 59 62 61 55
74 70 73 72 73 72 71 68 67 69 68 66 68 68 70 71 70 70 69 71 74 72 74 73 76 77 78 77 76 79 76 73 67 62 58 58 54 47 49 51 57 59 62 59
73 73 75 75 72 68 69 68 69 69 68 68 71 69 71 72 72 74 75 75 74 75 73 73 75 78 75 75 78 79 76 70 65 64 57 58 55 51 48 49 53 55 57 60
76 76 77 73 73 72 70 68 70 71 73 70 70 71 74 74 75 75 72 72 78 78 74 76 75 75 75 77 81 78 74 67 60 63 57 53 51 49 48 47 49 53 54 58
80 77 74 71 70 68 68 70 72 75 74 72 73 76 76 75 75 76 75 75 79 78 78 73 75 75 77 80 78 75 71 63 57 62 56 52 49 44 44 45 46 48 52 55
76 73 72 74 69 67 71 72 72 74 73 75 75 77 75 74 75 77 80 80 79 79 75 75 76 76 78 73 72 69 64 56 54 59 56 52 48 44 43 41 44 44 50 54
70 70 74 73 71 72 73 72 74 71 77 80 73 74 75 78 75 78 81 79 77 79 76 77 76 75 68 64 62 64 62 54 54 57 53 53 49 46 43 42 42 44 45 51
73 73 72 70 71 74 74 71 74 74 76 73 76 78 79 76 78 77 77 79 80 78 77 74 69 65 60 55 59 63 56 52 53 57 51 52 50 45 41 42 42 44 45 50
69 69 70 72 73 74 75 74 73 71 71 73 76 78 77 79 79 83 78 70 65 64 64 60 60 61 55 49 57 63 50 48 51 53 52 51 51 45 39 40 43 44 46 51
70 71 76 70 67 69 69 69 68 71 71 75 81 82 81 72 67 65 59 53 52 53 54 54 54 54 47 40 56 53 46 49 51 54 50 49 46 44 41 38 42 44 46 52
64 63 64 63 66 69 68 71 69 74 74 75 75 74 69 57 52 51 49 45 45 46 46 46 44 44 39 41 55 44 47 44 47 49 45 48 44 43 43 41 44 44 48 52
58 61 64 68 69 70 68 71 79 70 60 53 54 57 53 49 49 47 46 43 43 42 43 42 39 42 40 41 40 45 49 46 42 41 41 41 42 44 46 46 49 50 52 57
66 65 67 68 70 72 73 67 58 58 54 53 55 54 50 53 52 51 49 46 45 42 45 44 41 47 44 37 38 43 44 42 41 42 43 42 46 48 47 51 53 56 57 60
69 70 71 73 67 60 59 54 50 48 50 52 55 54 53 54 56 56 54 50 49 45 47 47 46 53 48 44 44 44 45 45 45 48 50 48 51 55 54 57 60 62 64 64
70 69 67 60 57 53 50 50 53 55 56 56 57 57 59 57 57 56 55 53 52 50 54 52 53 59 55 55 55 53 53 55 56 55 57 58 59 61 63 64 67 67 69 69
66 66 62 61 61 61 61 59 62 63 63 63 63 62 61 62 62 62 60 59 58 57 54 54 56 58 59 60 61 65 63 63 62 62 64 65 67 67 70 72 73 72 72 71
71 71 71 69 69 70 71 73 73 72 69 69 71 71 68 67 68 68 66 66 65 64 64 64 62 64 63 66 66 67 66 68 68 69 69 70 72 75 76 76 76 75 74 72
77 79 78 78 78 79 80 79 79 79 79 78 78 79 78 77 75 74 73 75 73 73 74 74 72 74 75 75 76 76 75 75 75 74 75 75 77 79 79 79 77 76 75 71
82 83 85 86 87 87 86 87 88 89 88 88 90 90 89 90 88 82 81 82 81 79 78 79 80 81 84 84 84 85 85 82 83 82 81 80 78 78 78 76 74 71 71 68
85 86 88 88 89 91 92 95 96 96 96 96 98 98 99 98 96 95 93 93 90 87 86 84 85 88 89 88 88 87 85 84 83 82 81 79 75 73 70 67 64 63 64 64
94 95 96 96 97 100 100 102 103 102 105 106 106 105 105 101 98 98 97 96 94 93 90 86 84 86 89 86 85 85 82 79 76 74 72 69 66 62 61 59 59 57 58 56

GFSNW_250_spd_276.txt.gz
Wind_Speed
49 48 43 40 43 45 42 40 37 40 40 40 40 42 43 48 52 54 55 52 53 56 59 64 64 59 60 64 66 68 67 64 62 60 62 64 65 67 64 68 69 62 54 48
53 51 49 46 44 46 45 43 38 42 43 41 44 45 46 50 53 56 53 54 58 58 61 65 66 65 64 65 67 67 68 67 66 64 65 67 69 68 65 67 72 64 52 48
56 55 52 50 47 46 48 46 40 42 49 48 46 49 51 54 58 58 56 60 58 58 64 66 66 65 68 71 70 71 71 71 69 66 66 68 71 70 69 70 72 66 51 48
61 57 54 46 47 47 50 46 44 46 47 49 49 52 54 57 60 59 62 58 63 63 66 69 70 69 72 74 74 74 73 70 68 70 67 71 71 69 68 73 72 62 53 46
58 60 54 50 49 47 51 44 47 49 50 52 53 54 57 61 62 62 63 61 65 67 68 73 73 74 75 76 76 76 76 68 69 70 69 69 68 71 72 74 67 59 49 46
59 57 56 51 50 49 50 48 51 51 51 53 56 57 60 62 64 64 63 64 66 70 71 74 77 76 79 78 78 79 73 72 71 70 72 69 72 75 74 68 61 55 49 45
59 62 57 56 53 55 56 54 53 54 56 58 58 59 60 63 64 65 65 67 69 72 73 77 78 81 83 79 80 76 73 76 73 74 73 73 76 71 64 56 58 51 47 43
61 61 63 58 57 60 57 57 57 58 59 60 59 62 64 67 65 68 69 70 74 73 75 78 80 82 82 80 83 76 76 78 82 79 75 71 72 62 52 50 54 48 44 42
67 64 63 62 61 63 60 58 59 61 62 61 63 67 67 69 67 69 73 76 75 74 76 78 80 82 81 83 78 78 80 82 76 72 67 64 64 59 49 47 44 47 44 39
74 69 70 66 63 62 61 63 62 63 63 64 69 69 69 70 69 73 76 77 75 77 78 79 79 82 83 76 77 81 78 74 69 67 61 57 60 54 43 41 38 39 43 41
77 73 69 69 68 68 66 65 66 68 70 70 69 68 72 71 72 75 77 75 77 78 79 77 82 80 76 76 83 80 70 61 59 53 50 45 48 46 41 38 38 40 41 38
81 75 73 74 75 73 73 73 74 74 72 70 70 68 71 73 74 79 76 77 78 78 79 83 80 75 78 84 69 61 56 44 44 46 46 42 37 38 36 35 37 42 39 37
81 77 77 78 80 79 78 78 77 77 73 71 69 73 75 75 77 78 76 77 77 76 82 78 76 75 72 58 53 52 46 40 42 43 44 40 37 32 31 33 35 35 32 31
82 82 82 86 86 82 80 75 73 70 67 69 73 76 75 76 76 76 75 76 76 79 78 74 76 77 66 57 53 54 42 45 42 46 39 41 42 34 30 33 34 33 35 36
88 90 90 87 79 70 74 69 68 71 72 71 75 75 75 76 76 75 73 75 79 77 74 77 77 75 56 55 56 55 49 50 44 45 43 39 48 42 31 35 40 41 40 42
81 79 77 75 72 64 69 68 72 72 74 71 73 75 75 75 72 73 76 77 72 71 75 77 68 60 55 55 56 52 53 53 52 49 51 50 46 50 49 46 48 46 46 45
68 66 66 66 66 66 66 67 70 72 73 72 71 73 71 71 73 76 76 72 73 74 73 74 63 57 55 56 56 54 56 54 56 55 53 58 58 55 57 52 55 56 56 55
62 63 63 62 63 63 65 69 68 69 70 73 71 70 71 73 76 74 73 72 73 75 74 64 60 60 60 60 60 61 60 59 60 60 61 60 60 64 64 63 63 64 65 65
66 65 63 63 64 65 67 67 69 68 68 69 70 75 75 71 69 72 72 73 72 68 66 62 61 65 67 66 65 65 67 67 66 67 68 69 67 67 70 72 72 72 73 72
59 59 60 63 65 68 70 67 64 66 69 73 73 72 70 71 72 72 72 73 73 72 66 67 66 71 74 74 73 72 73 73 73 71 73 75 76 77 77 78 80 79 80 79
65 64 63 64 64 65 65 65 70 69 69 71 72 72 72 74 74 73 77 75 75 69 69 71 69 75 80 81 81 82 81 81 81 81 79 78 79 83 85 83 85 85 85 85
57 60 64 67 67 69 67 66 67 69 70 72 73 74 76 77 78 76 74 74 73 73 72 73 75 81 83 85 88 91 94 94 93 91 91 87 86 85 87 88 89 88 89 88
64 61 60 61 63 62 64 68 73 73 71 71 74 76 78 81 77 77 78 77 77 78 79 80 83 85 88 93 95 98 101 102 101 97 94 93 89 87 86 85 85 85 86 85
61 63 64 66 65 68 74 74 74 74 75 79 81 83 80 80 81 81 80 81 82 82 85 89 91 92 94 96 99 102 105 105 105 102 97 94 90 89 87 83 82 81 81 80
67 67 68 71 75 73 73 71 66 68 71 72 72 75 78 80 81 82 86 89 88 92 95 96 97 98 99 100 103 105 105 102 100 98 93 88 85 84 83 81 79 77 76 75
72 71 69 70 71 72 72 70 70 70 72 75 77 78 80 82 85 88 92 97 100 102 100 100 101 103 102 102 102 99 97 94 90 88 84 82 79 74 74 75 76 76 74 74
62 64 65 66 68 70 71 73 75 77 78 80 81 82 86 89 92 96 98 99 101 105 107 106 105 103 102 99 95 91 88 85 82 79 77 75 74 71 66 65 66 66 69 69

GFSNW_250_spd_279.txt.gz
Wind_Speed
58 59 53 52 51 46 42 41 42 41 38 38 42 39 37 39 43 41 41 44 48 51 55 55 53 57 59 60 63 65 70 68 69 71 69 68 66 60 64 64 63 63 64 65
61 59 54 53 50 46 44 43 37 39 41 42 43 43 45 41 46 47 45 48 51 56 58 58 58 55 58 61 66 67 70 71 73 75 72 72 68 64 63 64 65 66 67 69
60 53 51 52 51 51 46 43 44 38 37 42 46 50 45 43 45 49 49 50 53 56 58 59 60 57 61 65 69 69 70 74 77 79 74 74 69 69 64 68 65 67 67 64
60 54 54 54 51 52 49 46 46 39 39 43 44 48 46 44 48 51 51 55 54 55 59 62 61 60 65 67 70 72 73 76 78 80 77 74 73 75 69 64 64 66 59 56
58 57 56 56 55 52 52 50 48 44 37 38 43 45 47 48 50 54 55 58 56 59 60 62 62 65 69 70 72 72 75 77 77 79 82 72 75 79 69 61 63 57 52 51
59 57 59 57 55 50 51 53 49 47 41 41 43 48 50 49 54 55 57 59 61 60 63 65 67 69 69 72 73 74 78 76 80 78 76 77 78 70 65 62 61 52 51 48
60 58 58 58 56 53 54 53 49 51 52 48 48 51 53 54 57 59 62 60 60 64 67 68 68 71 74 73 74 76 79 82 85 78 77 67 66 64 61 58 54 47 46 44
63 66 64 60 57 56 56 55 55 54 53 54 54 54 55 57 61 62 62 63 63 66 67 71 70 71 76 76 78 79 80 84 77 78 54 58 63 57 53 50 53 39 39 40
66 66 62 59 59 61 55 54 55 55 55 56 56 55 56 61 62 62 64 65 67 67 68 70 71 74 77 77 79 81 83 80 74 59 48 52 51 49 45 37 36 35 35 37
70 67 62 59 61 58 57 56 57 58 59 61 64 60 62 65 64 66 65 67 70 70 69 73 72 77 78 79 80 79 82 77 70 54 53 50 51 47 39 33 31 33 37 38
71 69 65 65 68 69 66 64 62 66 67 66 67 65 66 67 69 67 70 71 73 69 72 73 76 78 80 81 78 84 81 72 62 51 54 48 51 47 44 38 35 34 34 33
71 70 67 71 70 69 71 66 67 69 71 74 70 69 69 72 74 70 73 74 70 71 72 75 77 79 82 78 80 80 72 68 52 49 53 50 51 46 42 39 40 42 40 40
78 76 75 75 76 74 74 72 72 73 77 77 72 72 75 75 77 76 74 72 70 74 75 77 78 80 79 78 82 78 70 61 52 48 52 50 55 53 48 45 41 41 42 43
81 76 76 72 72 74 76 76 75 76 80 81 79 77 81 81 78 76 72 71 73 74 77 79 78 78 77 80 77 77 70 55 51 52 53 51 57 56 56 55 53 51 51 50
82 82 82 81 79 77 77 77 78 81 81 80 79 82 87 79 73 70 71 72 73 75 78 77 76 78 78 75 77 76 69 59 55 56 58 58 61 64 64 61 62 61 60 61
81 82 79 80 76 78 79 80 79 80 82 87 85 79 72 72 71 73 72 74 76 77 76 75 77 80 75 76 79 76 70 65 60 61 62 64 66 66 69 67 68 67 68 70
83 84 82 84 84 83 82 83 85 88 83 78 72 73 73 71 71 70 73 76 74 75 75 77 80 75 73 75 74 70 71 68 68 69 69 69 73 74 76 75 73 74 73 75
78 80 83 82 82 85 86 83 82 79 75 74 71 71 72 71 72 74 73 73 73 73 76 79 76 74 74 75 78 76 72 71 72 72 74 74 73 76 80 82 82 81 81 81
90 84 82 81 83 85 78 72 74 73 75 71 70 71 72 75 74 74 73 71 72 75 76 76 73 75 79 82 78 76 77 74 73 75 79 81 84 86 87 87 86 86 85 85
77 79 80 82 81 76 73 71 68 69 69 70 70 72 74 74 74 75 72 73 75 72 74 77 75 79 84 84 80 81 81 80 79 80 84 88 91 95 95 95 95 90 87 86
79 80 80 77 74 72 69 69 70 71 71 71 72 72 74 75 74 73 75 73 72 75 75 77 78 82 89 86 86 85 84 85 88 92 95 94 93 94 98 99 95 91 88 87
70 70 70 70 68 67 66 67 67 68 69 73 74 71 73 75 77 75 73 73 77 80 80 81 82 89 88 87 87 87 88 92 98 102 104 101 100 100 100 97 94 91 86 85
66 65 62 61 62 62 62 68 72 73 68 69 72 77 76 72 72 73 76 80 82 83 84 86 85 83 86 86 86 90 95 100 102 103 106 110 108 106 104 100 95 90 86 81
62 62 62 63 65 66 67 66 66 67 73 72 69 71 72 74 75 77 79 82 84 81 79 82 83 83 85 88 92 97 100 101 104 108 109 109 109 107 101 93 89 85 81 77
58 57 58 62 65 67 68 69 68 69 71 70 71 73 74 76 78 82 84 85 84 82 81 82 84 88 91 94 97 100 103 105 106 106 105 104 102 97 91 88 81 75 74 73
56 59 63 66 70 69 67 66 67 69 71 74 77 78 80 83 84 85 87 85 84 84 85 88 92 93 96 99 102 104 103 103 103 102 98 95 92 86 82 80 78 72 67 67
58 63 64 67 66 66 67 71 73 75 78 79 82 82 80 81 83 84 84 86 87 90 93 94 96 97 101 103 105 103 102 100 98 94 91 88 83 79 75 71 70 70 66 61

GFSNW_250_spd_282.txt.gz
Wind_Speed
58 58 56 53 53 50 47 44 39 38 37 36 40 42 40 41 40 41 41 38 41 45 47 46 48 49 49 51 54 57 57 57 58 62 64 66 69 70 73 75 69 66 71 70
58 58 58 56 52 53 49 45 40 37 39 38 36 39 39 39 38 40 41 40 44 45 47 48 52 51 52 54 58 59 61 62 63 67 68 69 75 74 80 74 73 70 76 65
58 59 59 58 55 52 53 48 44 44 40 41 35 36 39 35 35 37 40 42 45 45 47 49 53 54 53 56 61 63 64 65 66 70 69 74 73 82 77 82 73 67 63 62
60 59 56 56 55 53 52 48 44 44 43 43 41 40 40 32 35 37 39 42 43 46 49 53 56 54 57 60 61 63 63 67 69 70 73 77 80 85 83 70 61 60 57 53
62 58 56 56 57 55 53 49 46 45 43 45 46 43 41 39 37 37 40 42 46 48 51 55 55 58 60 62 63 64 65 66 69 74 76 80 83 86 73 58 58 57 55 51
66 60 55 56 57 55 52 51 48 48 45 46 46 48 45 45 43 44 48 48 49 52 53 56 56 61 66 65 68 67 67 67 71 72 78 80 86 85 64 55 58 60 56 43
69 65 60 59 59 56 53 50 51 51 50 49 49 49 49 47 48 47 47 50 51 51 56 57 64 66 67 66 70 68 69 69 72 75 78 80 85 69 52 51 54 57 53 42
67 67 64 58 58 58 55 51 53 53 52 53 54 52 50 50 49 49 49 54 56 58 58 63 68 72 68 69 71 69 69 72 72 77 77 81 80 56 47 47 52 50 50 46
69 67 63 60 60 57 55 55 54 56 58 56 55 54 51 51 51 52 56 59 61 60 61 66 70 75 70 72 71 70 72 73 76 77 78 80 73 56 50 47 50 51 50 46
67 65 65 63 60 55 56 57 56 60 57 56 58 51 52 55 56 59 61 64 64 66 67 71 75 75 75 76 72 73 73 76 77 77 81 72 71 54 49 48 50 50 51 50
70 67 62 64 62 62 62 61 62 61 57 57 58 63 67 63 64 64 64 66 67 70 75 75 77 79 78 73 74 73 75 77 76 77 78 70 69 57 51 48 49 49 50 51
70 65 65 66 68 65 65 66 64 62 60 62 64 66 66 68 70 70 67 69 72 78 76 78 81 77 77 75 74 77 77 77 77 79 76 72 69 62 54 54 55 56 55 58
74 74 69 70 71 69 68 68 64 65 66 65 69 72 75 75 75 73 74 76 76 77 80 82 77 75 75 74 76 80 80 76 76 80 73 74 76 72 65 63 63 63 63 63
74 77 75 73 71 70 67 67 67 67 68 71 74 74 75 73 75 74 76 78 80 80 82 77 74 74 76 76 79 83 77 77 78 77 74 72 77 72 69 67 69 68 66 66
77 75 76 73 68 69 69 67 68 70 75 75 75 72 75 76 75 78 79 81 82 86 78 75 74 75 75 80 82 81 78 78 76 74 73 72 77 75 77 76 74 74 71 71
76 75 76 75 73 69 69 71 75 78 77 78 79 78 77 79 80 82 82 84 83 78 77 76 76 77 77 81 82 80 79 79 75 75 75 77 82 80 81 80 79 79 80 83
76 76 74 74 73 74 75 78 81 81 81 80 82 84 87 85 84 83 83 79 80 77 77 77 76 77 81 81 81 79 81 77 79 78 79 81 88 84 84 85 85 86 88 91
80 78 78 76 76 77 80 81 84 83 80 83 85 84 83 85 82 80 81 78 76 76 76 78 78 81 80 80 80 82 79 79 82 84 86 86 88 85 85 87 88 91 93 95
82 81 81 82 82 84 86 86 86 85 84 86 86 87 86 84 84 82 76 74 75 75 77 79 80 79 80 81 82 80 79 82 87 89 89 93 86 87 88 90 94 99 99 97
78 80 80 80 83 84 85 87 88 85 90 88 90 85 83 81 81 79 75 74 75 77 78 78 78 81 82 84 81 80 83 88 90 94 89 89 89 90 94 96 100 101 103 104
82 80 82 83 83 85 85 87 88 84 83 82 81 80 81 81 76 75 76 77 77 78 77 79 78 83 79 79 81 84 87 91 91 90 92 91 92 95 98 100 102 103 103 104
81 82 82 84 85 85 82 81 80 80 78 78 76 75 75 76 76 77 78 77 77 80 79 80 83 80 79 81 84 88 90 92 94 93 93 96 100 102 103 105 107 108 109 107
80 75 77 80 82 77 73 72 72 71 72 72 74 77 77 75 73 74 77 80 82 80 81 80 79 80 83 86 90 92 94 96 96 97 100 103 105 106 107 108 109 109 109 106
69 71 73 71 65 64 67 68 69 69 71 74 73 71 70 73 74 78 80 79 81 84 84 82 82 85 88 92 94 96 97 97 99 102 105 106 106 108 111 113 112 106 100 98
68 66 63 63 64 67 68 69 71 69 67 68 70 72 74 77 79 77 80 80 79 81 82 85 87 90 94 94 94 95 97 100 102 102 103 107 110 110 108 108 104 102 99 92
62 64 65 65 66 66 67 67 67 68 70 73 74 75 77 78 79 81 78 79 81 84 87 90 94 95 93 94 95 96 97 98 100 103 107 108 109 108 104 99 98 93 90 82
65 66 66 67 65 65 66 68 71 70 70 71 73 76 76 79 80 77 80 81 86 88 87 86 88 91 93 95 96 98 100 101 104 106 106 106 106 103 98 92 89 85 79 73

GFSNW_250_spd_285.txt.gz
Wind_Speed
58 63 66 63 58 49 51 48 46 52 51 48 48 42 36 29 31 33 37 37 37 36 39 40 41 43 41 42 46 48 52 54 56 56 61 61 64 63 69 69 77 77 83 69
63 68 64 60 56 51 51 50 47 54 50 47 45 41 35 31 29 28 33 36 37 39 40 40 42 42 41 45 48 49 53 59 56 59 68 64 65 66 71 74 78 79 81 62
70 70 64 59 51 54 50 51 46 51 42 44 42 36 30 31 30 30 33 36 36 38 39 41 44 47 46 47 50 53 56 60 62 63 68 66 68 69 73 78 79 83 73 58
72 70 64 55 55 52 53 52 48 49 48 46 44 38 32 32 33 35 34 37 41 39 41 45 48 47 46 48 55 58 61 64 67 68 70 68 69 71 76 80 81 78 66 53
71 67 58 57 59 57 54 53 49 49 47 45 36 37 35 37 35 34 39 42 42 43 47 46 46 49 50 55 61 62 64 67 70 70 73 70 72 75 77 78 80 72 62 52
64 64 60 59 58 56 55 54 52 46 45 42 38 41 39 40 39 38 40 44 43 46 47 46 49 52 53 58 60 65 71 71 70 71 75 72 74 77 80 79 80 71 59 50
63 64 62 60 56 54 53 53 50 49 48 45 45 46 43 42 42 42 43 48 48 46 46 51 54 57 61 63 64 70 72 72 69 70 73 72 75 78 81 80 79 71 59 52
64 63 63 61 58 55 50 49 52 55 54 53 50 48 49 47 45 46 49 53 52 48 53 54 58 62 66 65 70 71 73 75 69 70 72 74 75 78 79 79 79 69 60 51
66 66 65 61 55 53 50 52 53 51 51 52 54 53 48 47 52 51 53 55 51 55 58 64 65 69 71 74 75 74 76 78 72 70 71 76 74 80 80 77 75 70 61 54
71 69 65 62 60 58 54 56 56 57 59 58 58 52 53 53 53 52 52 56 61 64 67 69 74 77 80 79 77 75 77 77 73 71 73 79 79 76 80 77 74 68 65 64
70 68 65 63 63 62 57 56 57 57 58 57 56 56 55 54 57 57 57 60 66 69 71 75 77 77 80 81 79 79 79 75 75 74 76 77 81 79 80 78 74 70 67 69
74 73 70 66 63 65 60 57 59 58 58 57 56 56 57 58 59 60 61 65 67 69 75 74 77 81 83 81 84 82 75 76 75 77 80 79 82 79 81 75 74 72 74 73
73 72 70 66 66 66 63 60 61 63 62 60 62 62 61 61 63 63 67 67 69 77 76 78 79 86 86 87 84 79 77 76 76 76 81 82 84 80 82 75 75 78 80 80
74 71 72 69 68 65 65 63 63 65 68 68 66 66 65 65 67 69 68 70 77 77 79 81 84 89 89 85 81 82 75 77 78 78 81 83 83 83 83 77 79 83 85 88
78 75 74 72 72 69 70 69 67 66 67 66 67 68 68 68 70 70 72 76 81 80 84 86 89 88 88 82 83 79 79 78 79 80 80 81 83 85 82 79 82 86 90 88
77 77 75 73 74 73 73 73 69 70 70 73 71 73 70 72 71 73 77 79 82 87 89 91 93 93 89 86 83 79 81 78 80 81 81 83 85 82 80 81 85 91 91 90
77 74 73 74 75 76 72 71 71 73 75 75 74 73 73 71 74 77 81 84 87 89 90 92 95 95 87 84 82 77 81 81 83 82 82 83 85 83 83 85 89 92 93 96
77 77 77 76 75 77 76 75 76 76 77 76 74 76 76 76 80 82 85 88 92 91 93 95 93 86 85 83 80 79 81 83 82 83 84 86 86 85 87 89 93 96 98 100
78 78 79 79 77 75 76 76 77 79 77 78 77 76 77 80 84 87 88 89 91 95 98 94 85 83 82 81 81 85 85 83 85 86 88 88 87 87 91 94 99 101 102 103
79 79 79 80 81 81 81 80 79 80 81 77 79 82 83 86 86 87 92 95 95 94 90 84 82 81 81 83 84 84 85 88 90 89 90 91 90 93 96 100 104 104 106 107
80 80 80 80 79 79 80 78 77 77 78 82 83 86 86 86 89 92 94 94 90 86 83 81 80 82 86 85 85 86 89 91 89 91 93 92 95 98 102 106 106 108 112 113
83 83 84 82 79 78 79 77 76 79 80 80 85 87 88 89 92 93 90 87 83 78 78 80 84 86 84 85 87 90 90 92 91 90 93 96 99 103 106 107 109 112 114 116
80 79 77 77 77 77 75 77 80 82 84 86 88 88 91 89 89 89 85 80 76 77 80 82 82 83 84 86 90 91 92 91 91 94 97 100 103 104 106 110 115 117 119 121
76 79 80 79 77 78 82 84 86 87 88 89 88 86 88 84 81 78 78 77 80 79 79 79 83 85 88 91 89 93 93 91 93 97 99 100 105 107 112 115 119 121 121 122
80 79 78 77 80 82 84 82 84 88 84 80 81 79 76 77 75 76 79 79 78 78 81 83 86 88 90 92 93 92 93 96 97 98 100 106 109 111 111 114 119 123 123 120
82 81 81 81 81 82 80 78 82 84 78 72 72 73 75 76 76 77 78 80 81 82 85 86 86 87 89 90 91 94 98 97 96 102 106 108 112 113 113 116 118 119 118 113
79 79 76 75 76 76 83 79 70 70 70 73 75 74 74 76 77 78 82 83 84 85 85 86 88 89 89 92 94 97 97 98 102 105 108 111 112 115 117 117 115 113 110 100